Wind_Speed
23 23 23 23 23 22 22 23 24 25 25 24 24 25 26 28 28 26 26 26 27 28 28 27 25 24 25 28 28 26 25 26 27 25 27 29 23 20 23 22 24 28 28 26 24 22 22 22 21 19 18 18 18 19 18 18 17 16 14 13 12 11 10
23 24 24 24 23 23 23 24 24 25 25 25 25 25 26 27 27 27 27 27 27 28 28 28 27 26 25 26 28 28 25 25 26 24 27 29 23 21 24 24 27 30 28 26 25 23 24 23 21 21 20 18 18 19 19 18 18 17 15 13 13 12 10
23 24 24 24 24 24 24 24 24 25 25 26 26 26 27 27 28 28 28 28 28 28 28 28 28 28 27 25 26 28 26 26 25 23 26 29 26 25 25 26 29 30 29 27 25 25 25 24 22 23 21 19 20 20 19 18 18 18 16 14 14 13 12
24 25 25 25 25 25 25 25 24 25 26 27 27 27 27 28 29 29 29 28 28 28 28 28 28 28 28 26 25 26 27 27 26 23 23 26 28 29 26 26 29 30 30 29 27 27 26 24 23 24 23 21 21 20 20 20 19 18 17 15 14 14 13
24 25 25 26 26 26 25 25 25 26 27 27 27 27 28 28 29 30 30 30 28 28 28 27 27 27 28 28 27 26 26 26 26 23 22 24 28 29 26 26 29 30 29 29 29 29 27 26 25 25 24 23 22 22 22 21 20 20 18 16 15 14 14
25 25 26 26 26 25 25 25 25 26 27 27 28 28 28 29 29 30 31 31 30 29 27 27 27 26 27 27 27 26 26 26 25 24 23 24 26 28 26 27 29 30 29 30 29 29 28 27 26 26 26 24 24 24 23 22 22 21 19 17 16 15 15
26 26 26 26 25 25 25 25 25 26 27 28 28 28 28 29 30 30 31 32 32 31 28 28 27 26 26 26 26 25 25 26 25 24 24 23 24 26 25 26 28 29 30 30 29 29 28 28 28 29 28 26 26 25 24 23 23 22 20 19 17 16 17
26 27 26 26 25 26 26 26 26 26 27 28 28 28 28 28 29 30 31 32 32 32 30 28 27 26 26 26 26 25 24 25 25 23 22 23 24 24 24 25 27 28 29 29 29 30 29 30 31 31 29 28 26 25 24 24 23 22 21 19 18 17 17
27 27 27 26 26 26 26 27 27 27 28 28 29 29 28 28 28 29 30 31 32 32 30 29 28 27 26 26 27 27 26 25 24 23 23 24 25 25 26 27 27 28 29 29 29 30 30 31 32 31 29 28 26 25 26 25 24 23 22 20 19 18 18
28 28 28 27 27 27 26 27 28 28 28 28 29 28 27 27 27 28 30 30 31 32 31 30 29 28 28 26 27 28 27 25 24 23 24 24 25 26 27 28 28 29 29 30 30 31 32 32 32 31 30 28 26 26 26 25 25 25 23 21 20 20 20
30 30 29 28 28 27 27 28 28 29 29 29 29 28 27 26 27 28 30 31 32 33 33 32 30 30 29 28 27 27 27 26 24 23 24 23 24 27 27 28 29 29 29 29 31 33 34 33 32 31 30 28 27 28 27 26 26 26 24 23 22 21 21
31 31 30 29 28 28 28 28 29 30 30 29 29 28 27 27 27 28 30 32 32 33 34 34 33 31 30 29 29 28 28 28 25 24 24 25 25 27 27 28 29 29 28 28 28 30 32 31 31 32 31 30 29 30 29 28 27 28 26 24 24 23 22
32 31 31 30 29 29 28 29 30 30 30 30 29 28 28 28 29 29 31 32 33 33 34 35 34 33 30 29 29 29 30 29 27 25 25 26 26 27 28 29 30 30 30 29 28 29 30 30 31 33 32 31 30 30 30 29 29 29 28 26 24 24 24
32 32 32 31 30 29 29 30 30 31 31 31 30 30 29 30 31 31 31 32 33 33 34 35 35 34 32 29 28 29 30 30 30 29 27 27 28 28 29 29 31 32 33 32 31 31 31 31 32 34 32 30 30 31 31 31 31 30 29 27 25 25 25
33 33 33 32 31 31 31 31 32 32 32 32 32 31 31 31 32 32 31 31 32 32 33 34 35 34 32 30 28 28 30 31 31 30 28 28 29 30 30 30 31 33 33 34 34 33 33 33 33 34 33 31 32 34 34 33 32 31 30 28 26 26 26
34 34 33 33 32 32 32 33 33 33 33 33 33 32 31 32 33 33 32 31 32 32 32 33 34 34 33 31 29 28 29 30 31 30 30 30 30 30 31 31 31 31 33 35 35 34 34 35 35 36 35 33 34 35 34 34 33 32 31 29 27 27 27
35 35 34 34 34 34 34 34 34 34 34 34 34 34 33 33 33 33 33 32 32 33 31 31 32 34 33 32 30 29 28 29 30 30 31 32 32 30 31 32 32 32 32 34 36 35 35 36 35 36 35 34 34 34 34 36 35 34 34 31 28 29 30
35 35 35 35 36 36 36 36 36 36 36 36 36 36 35 35 34 34 33 33 33 33 32 30 30 32 33 32 31 29 28 29 30 30 30 32 34 33 31 32 33 33 31 32 35 36 36 36 35 35 35 35 35 34 35 38 37 35 36 34 31 32 32
36 36 36 37 37 37 37 37 37 37 37 37 37 38 37 37 36 35 35 34 34 34 33 30 30 31 31 32 31 30 29 29 29 29 30 32 34 35 34 33 34 34 33 32 34 35 36 37 36 37 38 38 37 37 37 38 38 36 37 37 34 33 32
37 37 37 38 38 38 38 38 38 38 38 39 39 39 40 39 39 38 37 37 36 35 34 32 31 30 30 30 31 30 29 29 29 28 30 32 34 35 35 34 34 35 34 34 34 36 37 38 38 39 39 38 38 38 38 38 39 39 39 39 37 33 32
37 38 38 39 39 39 40 39 39 39 40 40 41 41 42 42 41 40 40 39 38 37 36 34 33 32 30 30 30 29 29 29 29 28 28 31 34 35 34 34 35 35 36 36 35 35 36 36 37 38 38 38 37 38 39 39 39 40 40 40 39 35 34
37 38 39 40 40 41 41 41 41 41 41 42 43 43 43 43 43 42 41 41 40 39 38 36 35 34 32 30 30 30 29 29 29 28 28 29 32 34 33 34 36 37 36 37 36 35 34 34 36 38 38 38 38 39 40 39 39 40 41 40 40 38 37
38 39 40 41 41 42 42 42 43 43 44 44 45 44 44 44 44 44 43 43 42 42 40 38 37 36 34 31 30 30 30 29 29 28 27 28 29 32 33 34 36 38 38 37 37 37 37 36 36 36 38 38 39 40 40 38 38 42 42 41 41 41 41
39 40 41 41 42 42 43 44 45 45 46 46 46 45 45 45 46 46 45 45 44 43 42 40 37 37 36 33 31 31 31 30 30 29 28 27 27 29 31 33 36 38 40 39 37 37 38 38 37 37 37 36 36 38 39 38 39 42 43 44 45 44 44
39 40 41 41 42 43 44 45 45 46 46 47 47 47 47 47 48 48 48 47 46 45 44 42 39 36 36 35 33 33 33 32 31 30 29 28 27 27 28 31 33 36 39 40 38 37 37 38 39 39 37 35 35 37 39 40 41 42 43 46 47 46 44
39 40 41 42 42 43 44 45 46 46 47 48 48 48 49 49 49 49 49 49 48 46 45 44 42 39 37 36 35 34 35 34 33 31 30 29 28 28 27 28 31 33 36 37 37 36 37 38 40 40 37 35 36 38 41 41 40 41 43 45 46 45 43
40 40 41 42 43 44 44 45 46 47 48 48 48 49 49 49 49 49 49 49 49 48 47 46 45 44 40 38 37 36 36 36 35 34 32 31 30 29 28 28 28 30 33 34 33 33 35 37 39 39 38 37 38 39 41 40 39 40 42 42 43 43 42
41 42 43 44 45 46 46 47 48 49 50 51 51 51 51 51 51 50 50 50 49 49 48 47 46 45 43 40 39 38 37 37 37 36 35 33 32 30 30 29 28 29 31 31 31 32 32 33 36 38 39 39 39 39 39 39 39 40 41 41 43 42 41
43 44 45 46 47 48 49 49 50 51 52 52 53 53 53 53 54 53 53 53 52 51 51 49 48 46 45 43 41 40 40 38 38 38 37 35 34 33 32 31 29 29 31 31 31 31 31 31 33 35 38 40 38 37 38 39 40 41 41 41 42 43 44
44 45 45 46 46 47 48 49 50 51 51 52 53 53 54 54 55 55 55 55 55 54 54 53 52 50 48 46 43 42 42 41 40 39 38 37 36 35 34 33 30 29 30 31 31 31 29 30 31 33 36 38 38 36 36 39 40 39 38 39 40 42 45
42 43 44 45 45 46 47 49 50 51 52 53 54 55 56 56 56 56 57 56 57 56 56 55 54 54 53 51 48 45 44 44 43 41 40 39 38 37 37 35 32 30 31 32 33 32 30 29 30 31 33 36 38 36 34 35 36 35 35 37 39 41 43
41 42 44 45 46 47 48 49 51 52 54 55 57 58 58 59 60 60 60 59 59 59 58 57 56 55 54 54 52 49 46 46 46 45 43 41 39 38 38 37 34 32 32 33 34 33 32 30 30 30 31 34 37 37 34 32 33 33 34 37 39 40 41
40 41 42 44 45 46 47 48 49 51 52 54 55 57 58 59 60 61 62 62 62 62 61 60 59 58 56 55 54 51 48 47 47 48 46 44 42 40 38 38 36 34 33 34 34 33 32 31 30 31 32 32 34 35 33 32 32 35 38 41 41 41 41
37 38 39 40 42 43 44 45 46 47 48 49 51 53 54 56 57 59 60 61 62 63 63 63 62 60 59 57 55 53 50 47 47 48 48 47 45 42 39 38 37 36 34 34 34 34 33 30 30 32 33 32 32 32 31 31 32 35 38 40 41 42 44
35 36 37 38 39 39 40 41 42 44 45 47 48 50 51 53 54 55 57 58 59 61 61 62 62 61 60 58 57 55 52 49 47 46 47 48 48 46 42 39 37 36 36 35 35 35 34 32 30 31 32 32 32 32 31 32 31 32 35 38 40 42 44
34 34 35 36 37 38 38 39 41 42 44 45 47 48 49 50 51 52 53 54 55 56 58 59 59 59 59 57 56 55 53 51 48 46 46 46 48 49 46 42 39 37 37 36 36 36 36 33 31 31 32 32 32 31 31 33 33 32 34 38 41 42 42
33 33 34 35 36 36 37 38 40 42 44 46 47 48 48 48 48 48 49 49 50 50 52 53 55 55 55 55 54 53 52 50 48 47 46 45 46 48 48 45 42 39 38 37 37 37 36 34 33 33 32 31 31 32 33 35 35 34 35 38 41 43 42
Wind_Direction
290 290 291 293 295 298 300 301 303 304 306 308 307 307 307 307 309 310 310 306 306 306 306 306 305 303 299 293 293 296 296 292 288 292 289 279 278 274 259 244 235 238 239 235 238 237 235 238 239 237 238 238 238 238 239 240 240 241 239 236 234 229 228
287 288 290 292 294 297 299 301 303 304 306 307 308 308 308 308 309 310 310 310 309 308 308 307 303 303 304 296 289 289 291 290 289 290 282 272 276 278 262 242 232 234 235 233 235 236 234 234 236 236 238 237 237 237 238 239 238 239 239 237 238 236 233
287 287 288 290 293 295 297 299 301 303 306 307 309 310 310 310 311 311 312 312 312 310 309 308 303 299 300 298 290 285 285 286 287 286 278 269 275 282 267 244 233 232 233 232 232 234 233 233 233 236 238 237 237 238 239 239 237 238 239 237 237 236 231
286 287 288 290 291 294 296 299 302 305 306 308 310 312 312 313 314 314 314 313 312 310 307 306 304 298 294 294 292 286 280 281 283 283 279 273 276 280 267 244 234 233 232 230 229 231 233 235 236 237 237 236 237 238 237 238 236 235 236 235 235 235 232
285 287 288 289 291 294 296 300 304 306 308 310 312 314 315 316 316 316 315 314 312 310 307 304 303 300 293 289 291 288 278 276 280 281 279 273 272 274 263 241 232 230 230 229 229 230 232 236 238 238 238 237 237 237 236 237 235 234 233 234 235 235 235
285 286 287 288 291 293 296 300 303 305 308 310 313 315 316 317 317 316 316 315 314 312 309 304 302 301 298 290 286 285 278 274 276 279 279 272 266 267 259 241 230 227 228 229 231 231 232 236 238 238 237 237 236 235 235 235 235 233 232 233 235 233 234
285 285 286 288 290 292 295 298 301 304 307 309 311 314 316 316 316 317 317 316 316 315 311 306 303 302 302 293 282 279 278 274 273 275 277 273 264 259 254 243 233 229 231 233 235 234 231 232 235 234 233 234 235 235 233 233 233 233 232 232 233 233 234
285 286 286 288 290 291 293 296 300 304 306 308 310 312 315 315 316 316 317 318 318 318 314 307 303 302 301 294 285 280 276 272 270 272 274 272 265 253 246 243 239 235 236 237 237 235 230 229 232 233 231 230 233 235 234 234 234 234 233 232 234 236 236
286 286 286 287 288 289 292 296 300 303 305 307 309 312 313 314 315 315 317 319 320 321 318 310 304 300 298 295 288 281 276 272 270 269 268 267 263 252 241 239 239 239 241 241 239 237 233 230 232 234 231 229 231 235 236 236 236 237 235 233 234 237 237
287 286 285 286 287 289 292 296 299 301 304 306 308 311 312 313 315 316 317 319 321 322 322 317 309 301 297 294 290 283 276 273 271 267 263 262 261 254 243 237 236 237 240 244 244 241 235 231 231 233 232 229 230 235 238 236 237 239 237 234 235 236 237
286 285 284 285 287 289 293 296 299 301 303 305 307 309 311 312 314 315 316 318 319 320 322 322 316 307 299 294 291 285 276 272 270 265 259 257 258 256 247 240 239 238 241 247 246 240 233 231 230 231 232 232 231 235 236 235 237 241 240 238 238 237 236
284 283 283 285 287 289 292 295 297 299 301 303 306 307 308 310 311 314 315 316 317 317 318 321 321 315 306 297 293 287 278 272 269 265 260 256 257 257 251 244 243 242 244 247 243 233 230 232 233 231 230 230 230 232 233 232 234 238 238 238 239 239 236
283 282 283 284 285 287 289 292 294 297 299 301 303 304 305 306 308 310 312 313 314 315 316 317 320 321 315 305 296 289 282 276 270 267 264 258 255 257 254 249 246 244 244 244 237 230 232 234 235 233 231 229 230 232 233 232 232 235 236 235 239 242 241
282 281 281 282 283 285 288 291 293 295 297 299 300 301 302 304 305 307 310 311 312 313 313 314 317 322 322 314 302 292 285 280 273 270 269 263 257 256 256 254 251 246 243 242 237 233 235 236 236 235 233 232 232 233 233 233 231 233 235 234 236 242 244
280 279 279 280 282 284 287 290 292 293 294 296 297 299 301 302 304 305 307 308 310 310 311 313 315 319 321 318 309 295 286 282 276 272 271 267 261 257 257 257 256 251 246 243 239 236 236 237 237 237 235 234 234 233 233 233 232 232 236 236 236 240 245
278 278 278 280 281 284 286 288 289 290 291 293 295 297 299 301 302 303 305 306 307 308 310 313 314 315 317 318 313 300 288 282 279 274 268 265 264 261 258 257 258 256 249 244 240 238 238 238 238 238 237 235 235 234 233 233 233 232 233 233 235 240 246
277 278 278 280 281 283 285 286 287 288 289 291 293 295 297 299 300 301 303 303 303 304 307 310 311 311 313 315 314 307 293 282 279 275 268 264 265 264 260 256 256 257 252 245 242 241 241 240 240 239 239 237 236 238 236 234 234 232 229 227 230 238 244
277 278 279 280 281 283 285 285 286 287 288 290 292 295 297 298 299 299 300 300 300 301 303 305 306 307 309 310 311 310 302 289 281 276 270 267 267 266 263 258 256 258 256 249 244 243 242 243 242 240 240 240 242 245 242 236 234 233 230 228 227 232 238
278 278 279 280 282 283 285 286 286 287 289 290 292 295 297 298 299 298 298 298 298 298 300 301 301 302 303 304 305 307 305 298 290 281 274 271 272 270 265 261 257 256 257 254 249 245 243 243 243 242 241 243 246 250 247 239 232 230 231 231 229 231 236
279 279 280 281 282 284 285 286 287 288 289 291 293 295 296 297 297 297 297 297 296 296 297 299 299 299 299 298 299 301 302 302 298 290 279 273 274 273 267 262 259 256 254 254 253 249 244 242 242 242 242 244 247 250 249 243 234 229 229 230 229 230 236
280 280 281 282 283 284 285 285 286 287 289 291 292 294 295 295 295 296 296 296 296 295 295 296 297 297 296 294 293 294 296 298 298 296 287 276 273 273 269 262 259 256 252 252 254 253 249 245 243 243 245 246 247 248 249 246 238 232 231 230 227 227 234
281 281 282 283 284 285 285 285 286 287 289 290 292 292 293 293 293 294 294 295 295 295 294 294 294 294 293 291 289 288 289 291 293 295 293 284 275 271 268 262 258 256 252 252 254 253 251 248 246 246 247 248 248 247 248 246 241 237 234 230 228 227 231
282 283 283 284 285 285 286 286 287 288 289 290 291 291 291 291 292 293 293 294 294 294 294 293 292 292 291 289 286 285 284 285 287 289 290 289 283 275 270 264 260 257 253 253 254 250 248 248 249 248 247 247 248 247 246 244 242 240 235 231 229 228 231
284 285 285 286 286 287 287 288 288 289 290 290 290 291 290 290 291 291 291 292 293 293 293 292 291 290 289 288 284 282 281 280 280 283 285 286 285 281 275 268 262 258 255 255 256 253 248 248 250 251 250 248 247 245 243 242 241 240 236 230 229 231 233
287 287 287 287 287 287 288 288 289 289 289 289 290 290 290 290 290 290 290 290 291 291 291 290 289 287 287 286 284 281 280 278 276 276 280 281 281 281 279 273 266 259 254 254 256 255 252 248 248 250 252 251 248 245 244 241 239 239 237 233 232 235 237
289 289 288 288 288 288 288 289 289 289 289 289 290 290 290 290 289 289 289 289 289 289 288 288 287 285 283 283 283 280 279 278 276 272 273 275 277 277 277 275 271 263 257 254 255 256 255 251 248 249 251 251 248 246 244 241 238 238 239 238 236 236 238
290 290 290 289 288 288 288 289 289 289 290 289 289 289 289 289 289 288 288 288 287 286 285 285 285 284 282 280 280 279 277 277 276 272 269 269 271 273 273 274 274 269 263 258 255 256 257 253 248 248 250 249 248 247 243 240 239 240 240 240 238 236 238
291 291 290 290 289 289 289 289 289 289 289 289 288 288 287 287 287 287 286 286 285 285 284 283 282 282 281 279 277 276 275 275 275 274 269 265 265 267 269 270 272 270 267 262 258 257 257 254 250 247 247 248 250 250 245 239 238 239 239 237 235 235 236
291 291 290 290 290 289 289 289 289 289 288 288 287 286 286 285 284 284 284 283 282 282 281 280 279 278 278 277 275 274 273 272 272 273 272 267 263 262 263 265 268 268 267 265 264 261 258 256 252 247 245 247 250 251 247 241 238 238 237 236 234 233 233
291 291 290 290 291 291 291 291 291 290 290 289 288 287 286 285 284 283 282 281 280 280 279 278 277 275 274 273 272 272 272 271 270 270 271 269 265 262 260 261 262 264 265 266 265 264 262 258 255 252 249 247 248 249 248 246 244 242 239 238 239 236 232
293 293 294 294 294 295 295 294 294 293 292 291 290 289 287 286 284 283 282 280 279 278 277 276 275 274 273 272 271 269 269 269 269 268 268 268 267 264 261 260 258 258 262 265 264 263 261 259 258 258 255 250 247 247 249 249 247 245 244 244 245 243 238
297 297 298 298 297 297 297 296 296 295 294 293 291 290 289 287 285 284 282 281 279 278 277 276 274 273 272 271 270 269 266 265 265 265 265 265 266 265 263 261 258 256 257 262 265 264 260 257 255 256 256 251 247 245 247 249 248 248 249 249 248 246 242
299 300 300 300 300 299 299 298 298 297 297 295 294 292 290 289 287 285 283 281 279 278 277 276 275 273 272 271 270 268 265 262 261 262 262 262 263 263 263 261 259 256 255 258 262 265 264 260 257 256 255 253 249 247 247 249 250 250 252 252 249 244 241
301 301 302 302 302 302 302 301 301 301 301 300 298 297 294 292 290 287 285 282 280 278 276 275 274 273 272 271 270 269 266 262 258 257 258 259 259 260 261 261 259 257 255 255 257 260 263 261 256 255 254 252 251 250 250 250 250 250 251 251 247 242 240
303 303 303 304 305 306 306 307 308 308 308 307 306 304 301 298 295 292 288 285 282 280 277 275 273 272 271 270 269 268 267 264 259 256 255 256 256 257 257 258 258 257 255 254 254 256 260 259 255 254 255 254 250 251 253 254 253 252 250 248 244 241 240
305 306 307 308 309 311 312 314 315 316 316 316 315 313 310 306 302 297 293 289 286 283 279 277 274 272 270 268 267 267 266 264 261 258 255 253 253 254 254 254 255 255 254 253 253 254 257 259 258 256 256 256 254 254 255 254 253 253 251 247 241 238 237
307 309 310 311 313 316 318 321 323 324 325 325 324 322 319 314 309 304 299 294 290 286 283 280 276 273 271 268 266 265 264 263 261 259 256 253 252 252 252 252 251 252 252 252 252 253 255 256 256 255 255 257 258 257 254 250 250 252 253 248 242 238 238
Height
5820 5819 5818 5817 5816 5815 5814 5813 5811 5810 5810 5809 5809 5808 5807 5805 5803 5803 5802 5801 5800 5799 5798 5798 5797 5796 5794 5794 5794 5794 5792 5790 5789 5787 5785 5784 5785 5786 5785 5786 5788 5789 5791 5792 5792 5793 5794 5796 5798 5798 5799 5800 5801 5802 5803 5804 5804 5805 5805 5805 5805 5805 5805
5817 5816 5816 5815 5814 5813 5812 5811 5809 5808 5807 5806 5806 5805 5804 5803 5802 5800 5799 5798 5797 5796 5795 5795 5794 5792 5791 5790 5790 5790 5789 5787 5786 5784 5782 5780 5781 5782 5781 5782 5783 5785 5787 5789 5789 5790 5791 5793 5795 5795 5796 5797 5798 5799 5800 5801 5802 5802 5803 5803 5803 5803 5803
5815 5814 5813 5812 5812 5811 5810 5808 5807 5805 5804 5803 5802 5802 5801 5800 5799 5798 5796 5795 5794 5792 5791 5791 5790 5789 5788 5787 5786 5786 5785 5784 5782 5781 5780 5778 5777 5777 5778 5778 5779 5781 5784 5785 5786 5787 5788 5789 5791 5792 5793 5794 5795 5795 5797 5798 5799 5800 5801 5801 5801 5801 5801
5812 5811 5811 5810 5809 5808 5807 5805 5804 5803 5801 5800 5799 5798 5797 5796 5795 5794 5793 5792 5791 5789 5788 5787 5786 5786 5784 5783 5782 5781 5781 5780 5779 5778 5778 5777 5775 5774 5774 5774 5775 5777 5780 5781 5782 5783 5784 5786 5788 5789 5791 5791 5792 5793 5794 5794 5796 5797 5797 5798 5799 5799 5799
5810 5809 5808 5807 5806 5805 5804 5802 5801 5800 5798 5797 5796 5795 5794 5793 5792 5790 5789 5789 5788 5786 5785 5784 5783 5782 5780 5779 5778 5777 5776 5775 5774 5774 5775 5774 5773 5771 5770 5771 5772 5774 5776 5777 5778 5780 5781 5783 5784 5786 5788 5788 5789 5790 5791 5792 5793 5794 5794 5795 5796 5796 5796
5807 5806 5805 5804 5803 5802 5801 5800 5798 5797 5795 5794 5793 5792 5791 5789 5788 5787 5786 5785 5784 5783 5782 5781 5780 5778 5777 5775 5774 5773 5771 5771 5770 5770 5770 5770 5769 5768 5767 5767 5769 5771 5772 5773 5775 5776 5778 5780 5781 5783 5784 5785 5786 5786 5788 5789 5790 5791 5792 5792 5793 5793 5793
5805 5804 5803 5802 5800 5799 5798 5797 5795 5794 5793 5791 5790 5789 5788 5786 5785 5783 5782 5781 5780 5779 5778 5777 5776 5775 5773 5771 5770 5769 5768 5767 5766 5766 5766 5765 5765 5764 5764 5765 5766 5768 5769 5770 5771 5773 5775 5776 5777 5778 5780 5782 5782 5783 5784 5786 5787 5788 5789 5789 5790 5790 5791
5802 5801 5800 5799 5798 5796 5795 5793 5792 5791 5790 5788 5787 5786 5785 5783 5782 5780 5779 5778 5776 5775 5774 5773 5772 5771 5770 5768 5767 5766 5765 5764 5763 5763 5763 5762 5762 5761 5762 5763 5764 5765 5766 5767 5768 5769 5771 5772 5773 5774 5776 5778 5779 5780 5780 5782 5784 5785 5785 5786 5787 5788 5788
5799 5798 5797 5796 5795 5793 5792 5790 5789 5788 5787 5785 5784 5783 5782 5781 5779 5777 5776 5774 5773 5771 5770 5769 5768 5767 5766 5765 5763 5762 5762 5761 5761 5761 5760 5759 5758 5758 5758 5760 5761 5762 5763 5764 5765 5766 5767 5769 5770 5771 5773 5774 5776 5776 5777 5779 5781 5781 5781 5783 5785 5785 5786
5796 5795 5794 5792 5791 5790 5788 5787 5786 5784 5783 5782 5781 5780 5779 5777 5776 5774 5773 5771 5770 5768 5766 5765 5764 5762 5761 5760 5759 5758 5758 5758 5758 5758 5757 5755 5755 5755 5755 5756 5757 5758 5759 5760 5761 5763 5764 5765 5766 5768 5769 5771 5772 5773 5774 5775 5777 5777 5778 5779 5781 5783 5783
5793 5792 5790 5789 5788 5786 5785 5783 5782 5781 5780 5779 5778 5776 5775 5774 5773 5771 5769 5768 5766 5764 5763 5762 5760 5759 5757 5756 5755 5754 5754 5754 5754 5754 5754 5753 5752 5752 5752 5753 5754 5754 5755 5756 5757 5758 5759 5761 5763 5764 5765 5767 5769 5770 5770 5771 5773 5774 5775 5776 5778 5780 5781
5789 5788 5787 5786 5784 5783 5782 5780 5779 5778 5776 5776 5775 5773 5772 5771 5770 5768 5766 5765 5763 5761 5759 5758 5757 5756 5754 5753 5752 5751 5750 5750 5751 5751 5750 5750 5749 5749 5749 5750 5750 5751 5752 5752 5753 5754 5755 5757 5758 5760 5761 5762 5764 5765 5766 5768 5769 5770 5771 5773 5774 5776 5777
5786 5785 5784 5782 5781 5780 5779 5777 5776 5775 5773 5772 5771 5770 5769 5767 5766 5765 5764 5762 5760 5758 5756 5755 5754 5752 5751 5750 5749 5747 5746 5746 5747 5747 5747 5747 5746 5745 5746 5747 5747 5747 5748 5748 5749 5750 5751 5752 5753 5755 5757 5757 5759 5761 5762 5765 5766 5766 5768 5770 5771 5772 5773
5782 5781 5780 5779 5778 5777 5775 5774 5773 5771 5770 5769 5768 5767 5765 5764 5763 5762 5761 5759 5757 5756 5754 5752 5751 5750 5748 5746 5745 5744 5743 5742 5742 5743 5743 5743 5743 5742 5742 5743 5743 5743 5743 5743 5744 5745 5747 5748 5749 5751 5752 5752 5754 5757 5758 5760 5762 5762 5764 5766 5767 5768 5769
5778 5777 5776 5775 5774 5773 5772 5771 5769 5768 5767 5765 5764 5763 5762 5760 5759 5758 5757 5756 5754 5752 5751 5749 5748 5747 5745 5743 5741 5740 5738 5738 5738 5738 5739 5739 5738 5738 5738 5738 5738 5738 5739 5739 5740 5742 5743 5744 5745 5747 5748 5748 5751 5753 5754 5756 5758 5758 5760 5761 5763 5764 5765
5774 5773 5772 5771 5770 5769 5768 5767 5766 5765 5763 5762 5761 5759 5758 5757 5755 5754 5753 5752 5751 5749 5748 5747 5745 5743 5742 5740 5738 5736 5734 5733 5733 5734 5735 5734 5733 5733 5733 5733 5734 5734 5735 5736 5736 5737 5738 5740 5741 5742 5744 5746 5747 5749 5751 5752 5753 5754 5755 5756 5758 5760 5761
5769 5769 5768 5767 5766 5765 5764 5763 5762 5761 5759 5758 5757 5755 5754 5753 5752 5751 5750 5748 5747 5745 5745 5745 5742 5740 5738 5737 5735 5733 5731 5729 5729 5730 5731 5730 5729 5728 5728 5728 5729 5730 5731 5732 5732 5733 5734 5735 5736 5738 5740 5742 5743 5745 5747 5746 5747 5749 5751 5752 5753 5755 5757
5765 5765 5764 5763 5762 5761 5760 5759 5758 5757 5755 5754 5752 5751 5750 5749 5748 5747 5746 5745 5743 5742 5742 5741 5739 5737 5735 5733 5732 5730 5728 5726 5725 5726 5726 5726 5725 5725 5725 5725 5725 5726 5727 5727 5728 5729 5730 5731 5732 5733 5735 5737 5739 5741 5742 5742 5743 5745 5747 5748 5749 5750 5752
5761 5761 5760 5759 5758 5757 5756 5755 5753 5752 5751 5749 5748 5747 5745 5744 5744 5743 5742 5741 5739 5738 5737 5737 5736 5734 5732 5730 5728 5726 5724 5722 5721 5721 5722 5721 5720 5720 5721 5722 5722 5722 5722 5723 5723 5724 5725 5726 5727 5729 5730 5732 5734 5736 5737 5738 5741 5742 5741 5742 5744 5746 5747
5757 5756 5755 5754 5754 5753 5751 5750 5749 5748 5746 5745 5743 5742 5741 5739 5738 5738 5737 5736 5735 5733 5733 5733 5731 5730 5729 5727 5724 5723 5721 5719 5717 5717 5717 5716 5716 5715 5716 5717 5718 5718 5718 5718 5719 5719 5720 5721 5722 5724 5725 5728 5730 5731 5731 5733 5736 5737 5736 5737 5740 5742 5743
5753 5752 5751 5750 5749 5748 5747 5746 5744 5743 5742 5740 5739 5737 5736 5735 5733 5733 5732 5731 5730 5729 5728 5728 5727 5726 5725 5723 5721 5719 5717 5716 5714 5713 5712 5712 5711 5711 5711 5713 5713 5713 5713 5713 5713 5714 5715 5716 5718 5719 5720 5722 5724 5725 5726 5727 5729 5731 5732 5732 5734 5736 5737
5749 5748 5747 5746 5744 5743 5742 5741 5739 5738 5737 5735 5734 5732 5731 5730 5729 5727 5726 5725 5724 5723 5723 5722 5722 5721 5720 5719 5718 5716 5714 5712 5710 5709 5708 5707 5707 5706 5707 5707 5707 5707 5708 5708 5708 5709 5710 5711 5712 5714 5715 5716 5718 5719 5720 5722 5723 5725 5726 5727 5728 5730 5731
5744 5743 5742 5741 5740 5738 5737 5736 5734 5733 5732 5730 5729 5727 5726 5725 5723 5722 5721 5720 5719 5718 5717 5717 5716 5715 5715 5715 5714 5712 5710 5708 5706 5705 5704 5703 5702 5701 5701 5701 5702 5702 5702 5703 5703 5704 5705 5706 5707 5708 5709 5710 5713 5714 5715 5717 5718 5718 5720 5722 5723 5723 5724
5740 5739 5737 5736 5735 5733 5732 5731 5729 5728 5726 5725 5723 5722 5720 5719 5718 5717 5716 5715 5714 5713 5712 5711 5711 5710 5709 5709 5708 5707 5706 5704 5702 5701 5700 5699 5698 5696 5696 5696 5696 5697 5697 5698 5699 5699 5700 5701 5702 5702 5703 5705 5708 5709 5710 5712 5712 5712 5714 5716 5717 5718 5719
5736 5734 5733 5731 5730 5729 5727 5725 5724 5722 5720 5719 5718 5716 5715 5714 5712 5711 5710 5709 5708 5707 5706 5705 5705 5704 5703 5703 5702 5702 5701 5700 5698 5697 5695 5694 5693 5692 5691 5690 5691 5691 5692 5692 5694 5694 5695 5696 5697 5697 5698 5700 5703 5704 5706 5706 5706 5706 5707 5709 5711 5713 5715
5731 5730 5728 5726 5725 5724 5722 5720 5719 5717 5715 5714 5712 5711 5709 5708 5706 5705 5704 5703 5702 5701 5700 5699 5698 5698 5698 5697 5696 5696 5695 5694 5693 5692 5691 5690 5689 5688 5687 5686 5685 5686 5686 5687 5688 5689 5689 5690 5691 5692 5694 5695 5697 5698 5699 5699 5699 5700 5702 5704 5706 5709 5711
5726 5725 5723 5721 5719 5718 5717 5715 5713 5711 5709 5708 5707 5705 5703 5702 5700 5699 5698 5697 5696 5695 5694 5693 5692 5691 5691 5691 5690 5690 5689 5689 5688 5687 5686 5685 5684 5683 5683 5682 5681 5680 5680 5681 5683 5683 5684 5684 5685 5687 5689 5690 5691 5691 5692 5694 5695 5696 5698 5699 5701 5704 5706
5721 5720 5718 5716 5714 5713 5711 5710 5708 5706 5704 5702 5700 5699 5697 5696 5694 5693 5691 5690 5689 5688 5687 5687 5686 5685 5684 5685 5685 5684 5683 5683 5682 5681 5680 5680 5679 5679 5678 5677 5677 5676 5675 5676 5677 5678 5679 5679 5680 5682 5683 5684 5685 5685 5686 5688 5689 5690 5692 5694 5696 5699 5701
5716 5715 5712 5711 5709 5707 5705 5704 5702 5700 5697 5695 5693 5692 5690 5689 5687 5686 5685 5683 5682 5681 5680 5680 5679 5679 5678 5678 5678 5678 5677 5677 5676 5675 5674 5674 5674 5674 5673 5673 5673 5672 5671 5671 5671 5672 5673 5674 5675 5677 5678 5678 5679 5680 5681 5682 5682 5683 5685 5688 5690 5694 5695
5711 5709 5706 5705 5704 5702 5700 5697 5695 5693 5691 5688 5686 5684 5683 5681 5680 5678 5677 5676 5674 5674 5673 5672 5671 5671 5671 5671 5671 5671 5671 5670 5670 5669 5668 5668 5668 5668 5667 5667 5668 5668 5667 5666 5666 5666 5667 5669 5670 5671 5672 5673 5674 5675 5676 5676 5676 5678 5680 5682 5685 5688 5689
5706 5703 5701 5699 5698 5696 5693 5691 5688 5685 5683 5681 5678 5676 5675 5673 5672 5670 5669 5667 5666 5665 5664 5664 5663 5663 5662 5662 5663 5664 5664 5663 5663 5663 5662 5662 5662 5661 5661 5662 5663 5663 5663 5662 5662 5662 5663 5663 5665 5666 5667 5667 5668 5670 5671 5671 5672 5673 5675 5677 5678 5680 5682
5700 5698 5695 5693 5692 5690 5687 5684 5682 5679 5676 5673 5670 5668 5666 5664 5662 5661 5659 5658 5657 5656 5655 5654 5654 5653 5653 5653 5654 5655 5656 5656 5656 5656 5655 5655 5655 5655 5655 5656 5657 5657 5657 5657 5657 5657 5658 5658 5660 5661 5661 5661 5662 5664 5665 5667 5669 5670 5671 5672 5673 5675 5676
5695 5693 5690 5687 5686 5683 5681 5678 5675 5672 5669 5665 5662 5660 5657 5655 5652 5650 5649 5647 5646 5645 5644 5644 5643 5643 5643 5643 5644 5645 5646 5647 5648 5648 5648 5648 5648 5649 5649 5650 5651 5651 5652 5652 5651 5652 5652 5653 5655 5655 5656 5656 5657 5658 5660 5662 5664 5665 5666 5667 5669 5670 5671
5691 5688 5685 5682 5680 5678 5675 5672 5669 5666 5662 5659 5655 5652 5649 5646 5643 5640 5638 5636 5635 5633 5633 5632 5632 5632 5632 5633 5633 5634 5636 5638 5639 5640 5640 5641 5641 5642 5643 5643 5644 5645 5646 5646 5646 5646 5647 5648 5649 5650 5651 5652 5652 5652 5654 5656 5658 5659 5660 5661 5663 5665 5665
5686 5684 5681 5678 5676 5673 5670 5667 5664 5660 5656 5652 5648 5644 5640 5637 5634 5631 5628 5626 5623 5622 5621 5620 5620 5620 5621 5622 5622 5623 5625 5627 5630 5631 5632 5633 5633 5634 5636 5637 5638 5639 5640 5641 5641 5641 5641 5641 5642 5644 5645 5646 5646 5647 5649 5650 5652 5654 5655 5656 5657 5659 5660
5682 5680 5677 5674 5671 5668 5665 5661 5658 5654 5650 5646 5642 5638 5633 5629 5626 5622 5618 5615 5613 5611 5609 5608 5608 5608 5609 5610 5611 5612 5614 5616 5619 5621 5623 5624 5625 5626 5628 5630 5632 5633 5634 5635 5635 5636 5636 5636 5637 5638 5639 5640 5641 5643 5644 5645 5647 5648 5649 5651 5652 5653 5655
5679 5676 5673 5670 5667 5664 5660 5656 5653 5649 5645 5640 5636 5632 5627 5622 5618 5614 5610 5607 5604 5601 5599 5597 5596 5596 5597 5598 5600 5601 5603 5606 5608 5611 5613 5615 5617 5618 5620 5622 5624 5626 5628 5629 5629 5630 5631 5631 5632 5633 5634 5635 5636 5637 5638 5639 5641 5643 5644 5645 5646 5648 5650